Date,TemperatureHighF,TemperatureAvgF,TemperatureLowF,DewpointHighF,DewpointAvgF,DewpointLowF,HumidityHigh,HumidityAvg,HumidityLow,PressureMaxIn,PressureMinIn,WindSpeedMaxMPH,WindSpeedAvgMPH,GustSpeedMaxMPH,PrecipitationSumIn
2012-1-1,34.3,26.7,18.3,30.8,19.0,10.2,88,72,63,29.47,28.89,59,26,59,0.02
2012-1-2,21.5,17.3,11.1,12.0,8.5,4.9,76,68,55,29.74,29.46,49,16,49,0.00
2012-1-3,30.9,19.9,9.1,16.9,10.8,3.4,79,68,52,29.71,29.04,26,5,26,0.00
2012-1-4,41.1,31.0,21.3,28.7,23.1,13.4,82,73,55,29.27,29.05,29,7,29,0.00
2012-1-5,58.2,39.6,27.6,38.0,29.3,22.2,81,68,44,29.22,28.86,26,5,26,0.00
2012-1-6,44.6,38.4,33.9,32.1,28.5,24.8,74,68,58,29.08,28.86,25,5,25,0.00
2012-1-7,36.1,30.7,25.1,25.5,22.8,18.6,79,72,64,29.41,29.08,33,7,33,0.00
2012-1-8,44.7,29.4,19.7,31.4,21.7,14.8,84,73,53,29.48,29.34,21,2,21,0.00
2012-1-9,47.3,35.5,27.1,32.5,26.7,21.2,79,71,54,29.34,29.10,33,7,33,0.00
2012-1-10,55.2,37.4,25.3,36.2,27.5,19.9,82,68,48,29.18,28.85,24,2,24,0.00
2012-1-11,40.1,27.7,13.6,33.2,21.4,6.6,81,77,72,28.95,28.77,58,12,58,0.00
2012-1-12,13.6,11.1,9.3,8.2,5.0,3.1,80,76,70,29.21,28.92,52,18,52,0.00
2012-1-13,14.1,10.8,7.3,8.2,4.5,0.9,80,75,71,29.39,29.12,27,7,27,0.00
2012-1-14,26.2,15.5,4.4,19.6,9.3,-1.2,82,76,66,29.28,29.14,14,1,14,0.00
2012-1-15,37.9,26.6,15.6,26.7,20.1,11.4,86,77,62,29.29,28.89,47,8,47,0.00
2012-1-16,36.5,29.7,22.1,28.7,23.7,14.8,85,78,73,28.99,28.85,129,8,129,0.00
2012-1-17,22.1,13.9,3.3,15.1,6.9,-3.1,81,73,64,29.54,28.96,37,12,37,0.00
2012-1-18,27.1,12.1,0.1,17.0,4.7,-6.1,80,72,63,29.54,28.94,37,8,37,0.00
2012-1-19,4.8,-0.8,-7.4,-6.3,-11.3,-16.3,67,60,52,29.74,29.21,37,6,37,0.00
2012-1-20,9.1,2.8,-4.3,1.4,-4.8,-10.9,75,70,62,29.66,29.50,19,3,19,0.00
2012-1-21,19.0,6.0,-7.7,14.7,-0.0,-13.5,83,76,67,29.72,29.19,40,6,40,0.00
2012-1-22,32.1,25.5,16.3,29.0,21.8,11.5,88,86,80,29.19,28.52,42,9,42,0.00
2012-1-23,32.1,25.3,20.4,29.0,21.0,15.8,88,84,79,29.11,28.52,33,6,33,0.00
2012-1-24,29.4,22.7,17.7,22.1,17.4,13.1,83,80,72,29.46,29.11,26,2,26,0.00
2012-1-25,34.8,27.5,21.9,27.9,22.3,17.7,84,81,75,29.49,29.15,28,6,28,0.06
2012-1-26,38.3,30.5,24.0,30.5,25.3,20.5,87,81,72,29.15,28.90,31,6,31,0.06
2012-1-27,34.5,27.5,20.1,30.0,21.6,14.6,84,78,72,29.18,29.02,45,7,45,0.00
2012-1-28,32.5,24.7,17.9,22.1,16.5,11.0,80,71,59,29.23,29.11,24,5,24,0.00
2012-1-29,27.6,21.6,18.1,23.0,14.1,-7.6,84,73,29,29.36,29.10,38,6,38,0.00
2012-1-30,47.4,35.0,21.3,33.6,26.4,15.5,78,71,58,29.13,28.85,29,3,29,0.00
2012-1-31,47.1,39.0,32.7,37.1,32.0,29.0,86,76,67,29.17,28.81,24,4,24,0.00
2012-2-1,36.5,32.9,30.0,32.1,29.3,26.9,88,86,83,29.37,29.17,20,1,20,0.00
2012-2-2,46.7,33.9,25.8,39.2,29.5,22.2,87,84,74,29.57,29.36,9,0,9,0.00
2012-2-3,33.6,30.9,29.1,30.1,27.6,26.0,88,87,86,29.62,29.53,16,2,16,0.00
2012-2-4,40.8,32.2,27.3,32.3,27.2,24.0,88,82,67,29.54,29.44,32,5,32,0.00
2012-2-5,30.0,28.2,26.4,26.9,24.9,23.1,88,87,86,29.54,29.40,24,4,24,0.00
2012-2-6,42.9,31.3,26.0,32.8,26.3,22.9,89,82,66,29.40,29.24,22,3,22,0.00
2012-2-7,31.8,28.5,20.4,27.5,22.3,14.1,85,78,71,29.64,29.35,24,3,24,0.00
2012-2-8,31.8,21.3,13.8,14.9,11.4,8.5,80,66,47,29.64,29.44,17,1,17,0.00
2012-2-9,33.9,24.0,12.7,25.5,17.3,7.2,82,75,68,29.44,29.11,30,6,30,0.00
2012-2-10,29.6,16.7,8.0,24.3,7.0,-4.1,82,65,54,29.73,29.10,50,12,50,0.00
2012-2-11,20.4,10.7,1.2,-0.9,-4.6,-9.1,63,50,37,30.12,29.74,50,14,50,0.00
2012-2-12,34.3,18.9,7.1,9.6,2.3,-3.3,63,49,32,29.87,29.28,23,6,23,0.00
2012-2-13,31.1,25.9,15.6,25.0,18.1,2.7,86,72,56,29.28,28.89,26,4,26,0.00
2012-2-14,36.3,30.1,25.3,28.6,25.0,21.4,86,81,71,29.02,28.88,22,4,22,0.06
2012-2-15,46.5,34.1,23.9,37.3,28.6,20.1,87,81,69,29.24,29.02,18,1,18,0.06
2012-2-16,38.8,32.5,26.4,29.4,25.3,20.2,85,75,59,29.32,29.24,23,5,23,0.00
2012-2-17,41.3,32.1,25.5,30.2,23.4,17.7,79,70,57,29.36,29.14,31,7,31,0.00
2012-2-18,39.7,29.1,19.7,23.2,18.1,13.0,76,64,50,29.45,29.35,27,2,27,0.00
2012-2-19,43.1,30.5,20.4,28.0,20.5,13.7,77,67,52,29.38,29.25,19,2,19,0.00
2012-2-20,41.9,32.6,25.3,29.0,23.8,18.8,86,71,55,29.30,28.83,45,10,45,0.00
2012-2-21,39.3,33.5,29.4,30.8,27.7,23.8,87,79,68,28.86,28.72,30,9,30,0.20
2012-2-22,44.4,33.2,24.6,32.0,25.3,11.6,82,73,29,28.78,28.58,10,0,10,0.00
2012-2-23,38.4,32.3,25.8,28.0,24.8,19.3,84,74,66,28.86,28.60,21,2,21,0.00
2012-2-24,31.6,25.4,16.3,26.5,17.8,8.2,86,73,61,29.21,28.84,46,14,46,0.00
2012-2-25,33.4,20.2,11.4,20.8,12.0,5.3,77,70,58,29.47,29.21,31,9,31,0.00
2012-2-26,47.1,31.6,19.9,33.1,21.4,13.8,78,66,50,29.30,28.87,53,17,53,0.00
2012-2-27,34.8,25.2,19.2,18.8,15.4,12.9,77,67,50,29.61,29.29,32,7,32,0.00
2012-2-28,35.2,31.1,24.6,31.5,24.6,15.2,88,77,67,29.57,28.68,32,6,32,0.43
2012-2-29,39.2,33.9,31.6,36.2,30.5,27.8,89,87,83,28.86,28.39,47,12,47,0.43
2012-3-1,38.1,33.9,30.0,30.7,28.3,25.5,88,80,73,29.03,28.87,32,4,32,0.00
2012-3-2,37.5,32.8,29.4,30.5,27.2,21.8,86,80,72,28.99,28.84,31,6,31,0.00
2012-3-3,30.0,24.8,19.4,23.5,18.0,12.6,80,75,71,29.03,28.85,58,14,58,0.00
2012-3-4,30.0,20.4,14.3,19.9,14.0,9.0,81,76,63,29.28,29.00,20,4,20,0.00
2012-3-5,34.3,24.7,13.2,26.6,19.3,8.8,86,80,71,29.42,29.09,25,4,25,0.00
2012-3-6,66.0,45.7,30.2,48.9,35.7,24.2,79,69,54,29.09,28.80,42,10,54,0.00
2012-3-7,57.0,43.3,27.6,50.5,37.5,22.0,86,80,71,29.18,28.80,36,13,36,0.02
2012-3-8,39.9,31.8,23.7,27.8,22.4,17.4,80,69,53,29.54,29.18,48,12,48,0.00
2012-3-9,39.9,29.5,20.1,18.8,13.8,7.6,63,52,40,29.76,29.46,49,6,49,0.00
2012-3-10,65.1,47.3,32.9,35.3,29.1,18.9,71,51,31,29.46,29.24,44,13,44,0.00
2012-3-11,63.6,48.8,37.5,45.7,34.2,27.5,83,58,37,29.30,29.03,28,6,71,0.29
2012-3-12,58.1,50.6,46.2,46.2,44.1,40.4,87,79,62,29.13,28.91,33,6,33,0.12
2012-3-13,69.6,51.4,34.8,45.0,38.9,29.7,86,65,38,29.27,29.10,28,3,28,0.00
2012-3-14,77.0,62.0,51.9,60.2,51.7,41.3,82,70,54,29.17,29.03,41,5,41,0.00
2012-3-15,75.3,57.7,41.7,54.2,45.5,36.2,81,66,43,29.25,29.11,28,2,28,0.00
2012-3-16,80.0,64.3,49.4,63.0,51.9,42.3,84,65,47,29.23,29.13,28,4,28,0.00
2012-3-17,81.3,69.2,60.6,63.6,58.4,54.2,85,69,50,29.15,29.05,34,9,34,0.00
2012-3-18,80.9,69.2,62.2,61.1,57.5,53.2,80,67,50,29.11,29.02,34,9,34,0.00
2012-3-19,80.2,68.1,61.5,62.7,58.5,55.7,85,72,52,29.08,28.92,38,7,38,0.22
2012-3-20,73.0,63.8,57.3,58.8,55.6,52.8,86,76,55,29.15,28.99,22,3,22,0.06
2012-3-21,68.7,62.1,57.3,59.3,56.1,53.2,87,81,70,29.29,29.14,16,2,62,0.00
2012-3-22,72.3,62.3,58.8,61.4,56.7,54.5,86,82,66,29.28,29.20,21,4,21,0.21
2012-3-23,71.2,61.0,53.9,55.0,52.4,25.5,88,75,29,29.21,29.08,21,1,21,0.00
2012-3-24,70.1,61.6,55.9,58.1,54.7,50.5,88,79,62,29.28,29.10,25,2,25,0.00
2012-3-25,64.2,55.2,47.8,51.3,45.9,38.0,88,73,47,29.38,29.26,23,3,23,0.00
2012-3-26,54.8,44.3,39.5,38.4,33.9,30.9,80,67,52,29.48,29.16,48,16,48,0.04
2012-3-27,75.3,58.5,41.1,56.3,41.7,31.1,77,56,32,29.18,28.92,53,16,53,0.00
2012-3-28,59.5,50.3,42.0,41.2,37.1,34.3,75,61,47,29.28,29.12,37,5,37,0.00
2012-3-29,65.4,51.4,39.3,44.6,38.4,0.0,77,62,45,29.28,28.78,34,10,34,0.10
2012-3-30,55.0,48.2,41.7,46.3,41.7,36.9,84,78,71,29.11,28.94,19,2,19,0.29
2012-3-31,51.6,46.0,41.7,45.4,41.4,37.2,87,84,79,29.11,28.96,29,7,29,0.00
2012-4-1,72.8,54.3,40.1,58.4,46.9,36.3,88,77,60,28.99,28.83,33,7,33,0.00
2012-4-2,74.4,59.5,47.4,58.1,48.1,36.7,75,66,29,28.99,28.89,39,13,39,0.00
2012-4-3,61.7,56.3,49.8,50.8,44.0,37.2,77,64,51,29.27,28.96,39,5,39,0.00
2012-4-4,66.7,52.9,41.9,37.1,32.7,29.5,68,48,29,29.27,29.11,23,2,23,0.00
2012-4-5,63.3,50.5,39.3,32.9,29.4,25.1,64,46,29,29.38,29.18,19,2,19,0.00
2012-4-6,62.9,47.5,34.5,35.5,28.9,23.6,67,50,34,29.49,29.32,28,5,28,0.00
2012-4-7,58.8,48.2,41.3,48.3,34.1,26.2,82,59,40,29.46,29.30,42,4,42,0.00
2012-4-8,64.7,50.4,34.5,33.1,26.9,21.0,62,42,26,29.51,29.28,28,4,28,0.00
2012-4-9,54.3,44.8,35.2,25.7,21.6,18.1,52,40,29,29.36,29.28,48,10,48,0.00
2012-4-10,47.3,36.8,27.1,22.4,18.3,14.4,63,47,34,29.48,29.36,41,6,41,0.00
2012-4-11,56.3,39.5,24.6,27.6,19.7,13.1,65,46,31,29.56,29.41,20,3,20,0.00
2012-4-12,65.4,49.1,31.2,33.4,26.1,17.8,59,42,28,29.43,29.24,19,2,19,0.00
2012-4-13,52.7,50.4,48.0,47.9,38.6,28.4,87,66,40,29.24,29.02,49,11,49,0.06
2012-4-14,70.8,58.6,15.8,57.7,52.1,12.6,87,80,59,29.11,28.81,29,4,29,0.67
2012-4-15,76.6,64.3,30.0,63.2,56.0,23.0,88,75,55,28.84,28.57,39,10,39,0.71
2012-4-16,56.8,43.7,37.9,46.5,35.9,31.4,85,74,63,29.44,28.55,55,12,55,0.00
2012-4-17,64.5,49.5,34.7,44.5,37.3,28.7,81,64,46,29.54,29.29,25,3,25,0.00
2012-4-18,67.8,58.4,50.3,51.8,47.0,8.7,84,67,48,29.29,29.16,48,6,48,0.17
2012-4-19,50.3,42.9,38.1,42.7,36.8,32.8,87,79,61,29.22,28.99,23,2,23,1.63
2012-4-20,54.3,44.2,36.8,36.0,33.4,30.0,87,67,45,29.27,29.07,35,7,35,0.00
2012-4-21,53.2,43.8,35.4,39.4,34.9,28.3,83,71,55,29.26,29.12,35,2,35,0.10
2012-4-22,58.2,48.3,42.0,41.2,38.3,35.0,86,70,46,29.42,29.14,20,2,20,0.14
2012-4-23,62.4,50.7,17.6,42.3,38.8,3.4,87,66,44,29.41,29.09,118,4,118,0.00
2012-4-24,77.3,60.5,48.0,52.3,44.2,37.1,71,56,40,29.10,28.86,15,1,15,0.00
2012-4-25,78.6,64.7,17.4,57.7,48.9,5.9,69,57,47,28.97,28.77,29,3,29,0.00
2012-4-26,63.1,54.1,45.1,49.5,36.9,25.5,81,55,33,29.37,28.97,39,4,39,0.00
2012-4-27,54.8,47.4,42.6,33.9,28.5,24.8,59,48,36,29.41,29.16,37,7,37,0.00
2012-4-28,48.2,42.7,37.5,41.7,36.3,27.6,86,78,55,29.40,29.13,35,7,35,0.23
2012-4-29,53.4,46.8,41.0,43.4,40.5,36.0,86,79,65,29.43,29.23,29,3,29,0.51
2012-4-30,63.6,52.1,44.6,51.6,45.6,41.0,88,79,63,29.23,29.11,16,0,58,0.00
2012-5-1,70.8,59.1,48.7,61.2,53.2,42.3,88,81,68,29.12,28.90,48,9,48,0.00
2012-5-2,81.5,67.5,57.7,68.3,60.9,53.9,87,80,64,29.07,28.81,26,3,26,0.90
2012-5-3,88.8,73.0,63.1,66.7,62.8,57.2,87,72,46,29.14,28.95,32,2,34,0.14
2012-5-4,82.2,67.9,60.6,67.8,60.7,55.4,86,78,60,29.25,29.07,27,1,27,1.14
2012-5-5,72.8,62.3,57.0,65.2,57.6,53.2,88,85,76,29.25,29.13,26,4,26,0.61
2012-5-6,70.8,61.6,19.2,63.3,56.8,16.0,89,84,74,29.23,29.07,26,5,33,0.55
2012-5-7,67.1,60.1,55.2,54.4,49.0,41.8,88,68,48,29.24,29.16,27,7,27,0.00
2012-5-8,60.0,53.2,47.1,47.6,43.4,39.7,79,70,59,29.20,29.12,26,4,26,0.02
2012-5-9,64.5,54.7,17.6,46.2,41.8,0.0,87,65,43,29.27,29.17,27,2,27,0.00
2012-5-10,78.0,62.3,46.2,49.6,43.8,37.0,71,52,36,29.23,29.11,27,2,27,0.00
2012-5-11,76.8,64.6,53.4,57.0,48.6,40.0,69,56,45,29.44,29.12,41,9,41,0.00
2012-5-12,71.0,59.1,47.4,44.2,38.9,33.7,77,50,29,29.57,29.44,16,1,16,0.00
2012-5-13,77.5,61.2,46.0,40.3,35.4,32.4,62,41,23,29.53,29.34,12,0,12,0.00
2012-5-14,86.5,65.2,51.0,47.6,38.4,31.5,55,39,25,29.35,29.19,7,0,11,0.00
2012-5-15,81.3,68.8,58.4,49.7,42.0,36.7,58,39,24,29.30,29.12,40,6,40,0.00
2012-5-16,81.1,62.9,20.8,44.0,36.5,-0.2,60,39,23,29.39,29.28,14,3,14,0.00
2012-5-17,84.0,67.9,54.1,47.6,42.2,36.2,58,41,28,29.31,29.14,46,9,46,0.00
2012-5-18,93.3,74.7,58.8,57.3,48.4,39.7,52,40,28,29.17,29.05,37,7,37,0.00
2012-5-19,88.8,77.2,16.5,60.3,54.8,-3.6,58,46,35,29.16,29.09,33,9,33,0.00
2012-5-20,75.2,63.7,51.6,57.9,50.6,37.5,76,63,49,29.44,29.10,39,10,39,0.02
2012-5-21,79.5,62.9,46.4,46.5,39.7,35.3,70,46,26,29.49,29.35,22,2,22,0.00
2012-5-22,88.8,70.3,54.3,51.5,43.8,0.0,53,40,27,29.36,29.02,29,7,29,0.00
2012-5-23,90.6,74.6,62.7,56.0,50.1,44.8,54,43,30,29.03,28.75,46,14,46,0.00
2012-5-24,80.4,68.7,17.6,64.2,55.1,12.2,83,63,47,29.00,28.65,33,8,33,0.57
2012-5-25,105.2,61.8,52.5,98.2,52.7,47.1,84,73,48,29.33,29.01,11,0,11,0.17
2012-5-26,73.9,66.6,57.9,64.7,59.5,53.7,87,78,67,29.36,29.12,28,2,28,0.36
2012-5-27,95.3,79.7,69.0,73.0,65.8,59.0,85,65,40,29.13,28.97,35,3,35,0.00
2012-5-28,85.1,72.5,62.2,65.2,58.4,48.2,84,63,38,29.11,28.93,20,1,20,0.23
2012-5-29,68.7,61.2,54.8,48.2,44.5,41.5,68,55,43,29.19,29.07,16,3,16,0.00
2012-5-30,70.8,56.1,47.4,47.6,42.9,39.0,79,62,41,29.26,29.15,14,1,14,0.16
2012-5-31,56.8,52.3,48.7,46.8,45.1,43.4,84,76,67,29.25,29.22,8,0,8,0.19
2012-6-1,70.5,58.5,46.0,46.7,42.8,40.3,84,59,36,29.23,29.05,11,1,11,0.00
2012-6-2,75.3,63.4,53.9,54.8,48.2,41.8,78,59,39,29.07,29.00,10,0,10,0.00
2012-6-3,77.5,66.6,54.5,53.6,49.7,43.9,71,55,40,29.12,29.05,10,0,10,0.00
2012-6-4,88.7,72.9,60.4,59.2,54.7,49.9,75,55,35,29.21,29.06,5,0,5,0.00
2012-6-5,89.4,74.3,64.2,61.0,55.8,52.2,69,54,36,29.29,29.20,0,0,4,0.00
2012-6-6,87.9,71.5,59.3,57.8,52.0,48.3,68,52,35,29.35,29.28,12,0,12,0.00
2012-6-7,88.3,71.8,61.5,59.8,51.2,46.8,61,49,36,29.40,29.28,13,0,13,0.00
2012-6-8,92.1,74.4,61.2,58.6,52.4,46.7,66,48,31,29.31,29.12,13,1,13,0.00
2012-6-9,91.8,76.0,62.4,57.3,52.9,49.6,64,46,28,29.15,28.99,16,2,16,0.00
2012-6-10,91.6,78.2,66.8,62.5,58.0,51.9,65,51,36,29.08,29.01,16,4,16,0.00
2012-6-11,76.7,68.1,59.2,62.3,53.0,41.6,82,61,41,29.26,29.04,16,2,16,0.08
2012-6-12,70.0,59.6,47.3,42.6,29.2,0.0,65,40,36,29.41,29.25,23,4,23,0.00
2012-6-13,74.1,62.5,51.6,51.6,44.7,37.8,63,53,41,29.40,29.22,28,2,28,0.00
2012-6-14,87.8,72.7,60.3,62.2,53.4,44.1,60,51,41,29.25,29.08,45,4,45,0.00
2012-6-15,87.1,75.7,66.8,65.1,58.6,52.1,65,56,44,29.26,29.16,23,1,23,0.00
2012-6-16,81.9,72.2,65.3,64.8,50.5,0.0,85,60,54,29.24,29.11,15,1,15,0.28
2012-6-17,84.6,70.1,54.7,60.7,51.7,0.0,74,56,36,29.20,28.87,31,3,31,0.00
2012-6-18,91.2,80.6,72.0,69.3,66.5,61.2,77,63,48,28.99,28.82,20,2,20,0.00
2012-6-19,94.5,81.3,72.3,70.0,65.3,62.3,73,59,42,29.11,28.98,36,5,36,0.00
2012-6-20,83.9,73.3,59.2,67.8,63.1,54.6,86,71,56,29.20,29.07,41,5,41,1.27
2012-6-21,74.3,65.1,57.0,56.4,53.4,50.2,87,68,49,29.30,29.19,23,4,23,0.00
2012-6-22,82.1,69.8,56.9,56.9,44.1,0.0,78,49,38,29.31,29.21,22,2,22,0.00
2012-6-23,75.9,73.6,65.7,59.6,26.6,0.0,71,30,59,29.26,29.20,21,1,21,34.63
2012-6-24,88.0,73.1,62.8,67.7,61.7,48.0,85,69,49,29.31,29.20,15,0,15,0.10
2012-6-25,83.9,69.6,60.3,61.2,52.2,47.0,75,56,32,29.40,29.28,11,0,11,0.00
2012-6-26,84.0,67.8,53.6,55.6,49.0,42.9,68,52,36,29.31,29.10,25,3,25,0.00
2012-6-27,99.2,79.5,65.1,73.9,62.2,50.0,70,56,43,29.11,28.98,129,5,129,0.00
2012-6-28,90.0,80.2,70.5,71.2,63.7,53.8,83,60,31,29.25,29.05,29,3,29,0.00
2012-6-29,84.6,73.5,64.2,65.1,60.1,54.8,77,63,48,29.25,29.12,16,0,16,0.00
2012-6-30,92.5,77.4,65.0,70.4,64.4,59.0,83,66,43,29.18,29.12,13,0,13,0.00
2012-7-1,96.6,80.7,67.8,73.1,66.5,58.7,76,63,44,29.25,29.15,19,1,19,0.00
2012-7-2,99.0,82.8,72.3,73.0,68.6,65.9,81,64,42,29.23,29.11,24,2,24,0.00
2012-7-3,99.0,82.9,71.8,75.5,69.5,64.4,79,65,46,29.21,29.10,26,2,26,0.00
2012-7-4,100.8,84.2,72.9,74.7,69.3,65.1,78,63,41,29.21,29.13,24,2,24,0.00
2012-7-5,93.2,83.2,75.0,72.2,68.2,63.9,70,61,49,29.30,29.20,13,1,13,0.00
2012-7-6,102.6,86.3,74.9,73.0,70.2,67.1,79,61,37,29.30,29.25,24,2,24,0.00
2012-7-7,84.0,75.6,68.4,68.6,63.7,57.5,82,67,53,29.39,29.28,29,3,29,0.00
2012-7-8,79.9,72.7,63.7,60.2,58.0,54.9,74,61,46,29.45,29.33,11,0,11,0.00
2012-7-9,84.9,73.0,63.0,63.6,56.7,51.0,81,59,35,29.40,29.36,23,3,23,0.00
2012-7-10,88.4,72.5,57.6,58.4,53.8,48.9,73,54,32,29.43,29.39,11,0,11,0.00
2012-7-11,90.3,74.2,61.2,59.1,54.7,51.7,73,53,35,29.44,29.31,7,0,8,0.00
2012-7-12,93.9,76.1,62.1,63.4,56.6,50.0,66,52,35,29.35,29.30,22,1,22,0.00
2012-7-13,82.8,74.5,66.8,67.4,62.2,58.5,80,66,56,29.34,29.26,17,1,17,0.55
2012-7-14,89.1,76.3,65.9,68.3,62.9,58.2,82,65,43,29.34,29.27,16,1,16,0.00
2012-7-15,97.5,79.7,66.6,67.9,63.8,53.8,80,60,31,29.36,29.29,12,0,12,0.00
2012-7-16,98.3,81.4,70.2,67.6,64.9,62.6,77,59,36,29.30,29.14,26,3,26,0.00
2012-7-17,101.5,83.5,70.0,71.1,66.0,61.8,77,58,34,29.18,29.11,13,1,13,0.00
2012-7-18,97.0,77.4,67.8,71.2,65.6,62.1,83,68,41,29.23,29.13,16,1,16,0.02
2012-7-19,79.9,71.2,65.3,66.0,63.1,60.7,88,77,59,29.37,29.20,18,2,18,0.00
2012-7-20,91.8,73.7,60.1,63.7,59.1,53.6,80,63,37,29.42,29.35,13,0,13,0.00
2012-7-21,84.9,72.9,65.1,68.5,62.4,58.3,80,70,56,29.42,29.29,23,1,23,0.00
2012-7-22,94.1,77.9,68.4,71.4,65.3,61.5,84,67,42,29.38,29.18,18,1,18,0.08
2012-7-23,88.4,80.2,72.3,73.4,69.2,64.5,79,70,56,29.28,29.21,7,0,7,0.00
2012-7-24,95.9,79.5,69.5,71.2,66.0,61.2,83,65,43,29.31,29.13,23,2,23,0.00
2012-7-25,99.3,82.1,71.8,71.0,67.3,64.2,79,63,38,29.15,28.94,24,5,24,0.00
2012-7-26,87.3,76.1,67.5,67.7,60.0,53.1,86,61,33,29.13,29.00,24,3,24,0.00
2012-7-27,76.5,67.9,59.0,58.3,55.6,52.8,83,66,51,29.38,29.14,25,4,25,2.24
2012-7-28,84.4,68.6,58.3,62.8,57.7,52.8,84,69,46,29.42,29.32,24,1,24,0.00
2012-7-29,76.5,68.3,63.0,65.6,60.8,56.9,86,77,66,29.35,29.25,16,0,16,0.11
2012-7-30,92.9,75.7,63.3,70.2,63.9,58.4,86,69,44,29.26,29.18,16,2,16,0.00
2012-7-31,89.4,74.3,61.0,63.0,59.1,55.1,82,62,36,29.29,29.20,17,1,17,0.00
2012-8-1,97.7,79.0,63.3,68.6,61.8,54.5,76,58,37,29.26,29.14,19,2,19,0.00
2012-8-2,95.4,79.4,69.6,65.9,62.4,58.5,72,57,36,29.22,29.12,19,0,19,0.00
2012-8-3,92.7,78.7,66.0,67.5,62.2,57.5,75,59,39,29.21,29.08,0,0,0,1.08
2012-8-4,76.1,68.0,62.8,64.6,58.4,53.5,87,73,53,29.27,29.11,54,2,54,0.85
2012-8-5,74.5,64.1,55.6,53.8,50.9,48.1,84,64,43,29.46,29.25,31,5,31,0.00
2012-8-6,89.3,68.9,52.9,61.7,54.1,46.0,80,61,39,29.44,29.25,17,1,17,0.00
2012-8-7,91.2,75.0,62.6,65.9,59.3,54.8,78,60,38,29.31,29.22,13,1,13,0.00
2012-8-8,90.0,71.5,63.3,65.3,58.4,53.5,81,65,43,29.31,29.17,41,1,41,0.11
2012-8-9,78.6,64.9,54.0,61.6,57.2,49.6,87,77,54,29.30,29.19,24,2,24,0.32
2012-8-10,74.1,61.9,52.0,54.7,51.2,48.0,88,70,47,29.36,29.27,17,2,17,0.00
2012-8-11,76.5,61.9,47.7,49.8,46.8,41.7,80,60,35,29.35,29.24,0,0,3,0.00
2012-8-12,62.3,58.7,56.7,54.7,52.1,29.0,87,79,31,29.28,29.20,0,0,3,0.47
2012-8-13,75.6,63.5,54.7,58.4,54.8,51.2,89,75,53,29.29,29.23,18,2,18,0.12
2012-8-14,79.5,68.0,56.9,60.8,56.2,51.1,84,67,49,29.24,29.16,16,0,16,0.00
2012-8-15,83.3,69.7,60.6,63.2,58.0,52.9,79,67,50,29.17,29.01,26,3,26,0.00
2012-8-16,69.5,63.0,55.4,62.3,51.7,45.1,82,67,52,29.31,29.01,33,11,33,0.00
2012-8-17,72.0,58.9,46.1,46.9,43.7,40.3,81,60,38,29.33,29.27,23,4,23,0.00
2012-8-18,71.3,59.5,48.4,50.5,46.0,40.8,77,62,42,29.30,29.22,15,0,15,0.00
2012-8-19,71.1,60.1,50.7,54.6,49.4,44.8,82,69,48,29.27,29.21,21,1,21,0.00
2012-8-20,75.9,61.9,49.3,48.7,45.9,42.1,82,59,35,29.29,29.24,16,0,16,0.00
2012-8-21,82.4,63.7,48.4,51.2,44.9,39.3,73,53,31,29.34,29.28,14,0,14,0.00
2012-8-22,82.2,68.4,54.9,60.5,52.4,43.7,68,57,46,29.28,29.18,18,1,18,0.00
2012-8-23,89.3,74.6,61.9,59.1,54.5,50.9,71,52,32,29.24,29.15,31,4,31,0.00
2012-8-24,88.5,74.3,65.9,64.3,57.7,50.7,68,57,42,29.22,29.14,23,2,23,0.19
2012-8-25,78.1,68.3,61.4,63.4,57.7,51.8,79,69,60,29.26,29.20,9,0,9,0.06
2012-8-26,82.2,70.6,62.4,65.8,60.7,56.2,85,72,54,29.33,29.20,18,1,18,0.00
2012-8-27,86.6,70.9,56.3,62.5,56.3,50.2,83,63,36,29.40,29.32,17,1,17,0.00
2012-8-28,85.3,73.3,61.9,65.1,58.8,52.0,72,61,49,29.42,29.28,16,1,16,0.00
2012-8-29,93.8,77.4,66.0,62.0,59.9,58.2,77,58,32,29.30,29.17,32,4,32,0.00
2012-8-30,95.7,79.5,66.2,61.3,57.7,54.8,70,50,31,29.24,29.14,42,5,42,0.00
2012-8-31,86.2,73.5,62.8,63.0,56.4,51.0,80,56,39,29.36,29.23,14,1,14,0.00
2012-9-1,85.3,72.5,64.1,56.3,53.1,48.7,71,52,36,29.36,29.26,9,0,9,0.00
2012-9-2,91.2,73.4,58.7,67.1,58.1,47.9,71,60,43,29.30,29.18,13,0,13,0.00
2012-9-3,81.3,73.7,67.3,67.8,63.9,60.2,80,72,62,29.24,29.18,11,0,12,0.00
2012-9-4,92.3,75.7,61.7,69.9,62.2,55.8,86,66,41,29.22,29.07,27,1,27,0.02
2012-9-5,78.5,66.2,56.7,61.8,54.7,47.4,84,68,42,29.20,29.03,37,3,37,0.26
2012-9-6,83.1,65.5,51.5,52.0,47.4,43.1,74,54,32,29.26,29.15,15,0,15,0.00
2012-9-7,67.1,60.9,49.8,52.6,47.4,39.3,76,62,42,29.26,29.07,37,5,37,0.00
2012-9-8,76.5,58.1,43.2,45.8,41.5,37.4,81,57,31,29.28,29.05,46,6,46,0.00
2012-9-9,72.3,58.3,45.0,48.1,43.3,39.4,84,60,38,29.42,29.25,19,2,19,0.00
2012-9-10,80.1,63.3,48.6,50.2,45.2,40.3,75,54,35,29.38,29.18,29,4,29,0.00
2012-9-11,88.9,71.1,55.8,54.3,49.2,45.7,71,49,28,29.23,29.12,39,7,39,0.00
2012-9-12,68.7,59.2,49.5,52.7,47.3,42.1,83,65,49,29.52,29.21,24,2,24,0.35
2012-9-13,67.3,55.3,47.7,49.5,43.5,38.7,85,67,37,29.60,29.50,9,0,9,0.14
2012-9-14,77.7,59.0,45.7,50.2,43.3,38.9,81,59,33,29.56,29.49,14,0,14,0.00
2012-9-15,80.4,62.5,47.9,46.2,42.6,0.0,71,51,30,29.51,29.32,32,2,32,0.00
2012-9-16,81.3,65.9,52.3,60.4,51.5,42.1,72,61,45,29.33,29.18,29,2,29,0.00
2012-9-17,63.6,56.5,48.7,53.9,45.3,36.3,83,67,47,29.23,29.14,38,5,38,0.06
2012-9-18,60.9,51.2,39.9,40.1,36.2,31.8,82,59,37,29.26,29.17,28,2,28,0.00
2012-9-19,79.1,61.1,49.6,50.6,37.9,33.7,57,43,30,29.18,28.92,57,6,57,0.00
2012-9-20,66.0,55.6,44.9,37.1,33.8,31.4,61,45,32,29.19,29.12,37,4,37,0.00
2012-9-21,65.6,55.8,50.9,50.8,41.8,32.3,78,60,45,29.16,29.02,29,2,29,0.14
2012-9-22,55.9,46.8,37.4,39.3,32.5,25.5,71,58,46,29.47,29.05,48,8,48,0.00
2012-9-23,58.8,46.0,33.9,34.6,29.0,25.4,75,53,35,29.54,29.43,28,2,28,0.00
2012-9-24,77.1,56.5,37.4,43.0,33.9,24.1,61,44,28,29.44,29.05,41,3,41,0.00
2012-9-25,77.7,61.2,48.7,46.0,38.5,32.4,68,45,27,29.17,29.03,28,2,28,0.00
2012-9-26,72.3,54.9,39.9,40.4,34.5,29.1,70,48,30,29.41,29.17,15,0,15,0.00
2012-9-27,73.9,55.8,43.3,45.0,37.2,31.6,68,51,34,29.49,29.39,14,0,14,0.00
2012-9-28,76.8,58.5,42.4,46.4,38.0,31.5,68,48,30,29.47,29.36,8,0,8,0.00
2012-9-29,82.5,64.6,48.5,43.9,39.2,34.7,60,41,24,29.38,29.24,31,2,31,0.00
2012-9-30,80.4,63.2,48.9,44.8,39.3,35.8,64,44,26,29.27,29.15,9,0,9,0.00
2012-10-1,73.4,60.2,51.6,49.2,43.0,36.2,67,54,42,29.17,29.09,37,4,37,0.00
2012-10-2,75.0,58.4,43.7,51.5,43.4,36.0,78,59,39,29.20,29.09,15,0,15,0.00
2012-10-3,80.9,62.5,48.0,51.7,44.5,38.5,75,54,35,29.18,29.10,23,1,24,0.00
2012-10-4,62.2,51.1,41.5,44.0,35.2,27.2,67,55,45,29.41,29.12,49,6,50,0.00
2012-10-5,48.0,41.0,33.9,29.3,24.6,20.7,68,53,35,29.41,29.32,36,6,37,0.00
2012-10-6,41.5,37.8,32.3,28.4,24.3,20.3,70,58,50,29.46,29.34,32,6,33,0.00
2012-10-7,53.4,40.0,27.1,25.8,21.5,16.9,67,49,32,29.45,29.19,23,1,24,0.00
2012-10-8,67.2,50.3,36.1,39.6,30.4,19.3,67,48,32,29.19,28.94,46,7,47,0.02
2012-10-9,55.2,46.7,37.5,44.5,37.3,24.9,82,70,55,29.21,28.98,44,3,45,0.30
2012-10-10,51.9,41.2,30.9,30.5,26.8,22.3,74,57,42,29.36,29.19,33,2,34,0.00
2012-10-11,50.7,45.2,34.7,34.5,28.5,18.1,60,52,42,29.57,29.13,37,5,38,0.00
2012-10-12,56.3,41.2,29.1,31.6,22.4,16.5,64,49,31,29.63,29.28,27,3,28,0.00
2012-10-13,66.7,56.3,44.7,61.0,50.9,32.1,88,82,58,29.29,28.90,36,4,37,0.10
2012-10-14,58.8,51.4,46.4,55.0,44.8,12.4,89,79,24,29.11,28.84,50,9,51,0.43
2012-10-15,65.3,50.5,37.4,45.3,38.9,31.6,81,66,46,29.19,29.03,16,0,17,0.00
2012-10-16,69.6,57.1,47.4,52.7,45.5,39.7,76,66,53,29.04,28.63,29,2,30,0.00
2012-10-17,61.7,53.9,46.2,52.0,44.6,19.3,81,71,51,28.64,28.51,30,5,31,0.02
2012-10-18,46.9,44.1,41.1,42.0,38.8,35.8,86,82,68,28.60,28.45,26,2,27,0.06
2012-10-19,49.8,44.1,39.9,46.1,40.3,35.9,88,87,85,28.94,28.59,27,1,28,0.10
2012-10-20,50.0,44.2,38.8,43.9,39.9,35.3,89,85,78,29.10,28.95,16,1,17,0.00
2012-10-21,70.1,54.4,41.3,54.5,46.3,30.6,87,75,57,29.11,29.03,29,3,30,0.00
2012-10-22,67.6,59.4,54.3,60.5,54.2,48.5,87,83,76,29.10,29.06,23,1,24,0.00
2012-10-23,69.2,64.7,59.9,63.9,60.2,56.0,88,86,82,29.07,28.95,36,2,37,0.00
2012-10-24,72.1,64.1,55.5,66.8,59.8,0.0,88,86,80,29.06,28.92,32,3,33,0.18
2012-10-25,55.4,42.2,34.1,51.9,37.7,26.4,89,84,71,29.38,28.81,59,13,60,1.10
2012-10-26,39.7,34.9,30.0,27.5,25.8,24.1,80,69,60,29.59,29.38,30,6,31,0.00
2012-10-27,43.8,35.6,28.9,27.0,24.5,20.7,78,65,48,29.58,29.48,12,0,13,0.00
2012-10-28,49.2,35.6,25.5,28.2,22.5,0.0,75,60,41,29.54,29.47,17,1,18,0.00
2012-10-29,46.2,36.8,28.5,31.7,25.2,18.7,71,63,54,29.53,29.39,22,0,23,0.00
2012-10-30,50.5,37.7,29.1,31.9,25.3,20.5,73,62,43,29.40,29.20,39,3,40,0.00
2012-10-31,50.1,36.4,24.0,24.9,21.4,17.2,75,57,33,29.22,29.13,28,3,29,0.00
2012-11-1,49.8,40.9,30.3,34.8,28.2,21.7,72,61,50,29.24,29.10,37,4,38,0.00
2012-11-2,45.1,35.2,25.8,31.0,25.0,19.0,77,67,54,29.33,29.23,18,0,19,0.00
2012-11-3,49.8,42.6,37.9,33.7,29.5,0.0,68,60,49,29.43,29.31,5,0,6,0.00
2012-11-4,51.4,43.9,38.8,38.6,34.4,28.9,78,69,58,29.43,29.33,16,0,17,0.00
2012-11-5,47.1,41.9,37.2,37.9,34.9,30.6,84,76,65,29.39,29.21,14,0,15,0.06
2012-11-6,45.6,40.3,38.1,39.2,35.2,33.0,88,82,70,29.21,29.01,41,7,42,0.15
2012-11-7,43.5,38.8,34.3,35.5,31.7,27.0,86,76,66,29.32,29.14,29,1,30,0.00
2012-11-8,55.2,42.1,32.9,41.8,34.2,27.6,85,74,58,29.29,29.13,37,2,38,0.00
2012-11-9,54.3,44.8,36.1,42.9,37.9,31.6,85,77,65,29.19,29.06,30,6,31,0.00
2012-11-10,75.9,59.6,47.1,58.6,50.6,40.6,87,73,52,29.06,28.81,48,11,49,0.00
2012-11-11,61.1,38.0,22.1,52.2,32.2,13.8,87,80,69,29.19,28.84,29,3,30,0.35
2012-11-12,26.4,22.5,19.2,17.9,14.8,3.8,77,72,47,29.49,29.18,28,3,29,0.00
2012-11-13,42.9,29.7,15.9,28.7,20.6,10.5,81,69,56,29.58,29.49,24,2,25,0.00
2012-11-14,56.1,42.4,35.7,37.3,30.7,26.0,78,64,45,29.53,29.40,35,3,36,0.00
2012-11-15,52.5,41.7,31.6,36.9,31.3,24.2,77,67,54,29.60,29.38,25,2,26,0.00
2012-11-16,52.5,35.9,23.1,35.3,25.4,16.1,74,66,49,29.65,29.54,13,0,14,0.00
2012-11-17,56.3,43.4,34.1,40.6,33.6,9.3,83,69,53,29.56,29.45,25,3,26,0.00
2012-11-18,57.2,47.8,40.1,37.3,33.1,0.0,66,57,46,29.47,29.34,33,5,34,0.00
2012-11-19,59.5,49.8,41.7,44.7,39.2,15.8,79,67,54,29.35,29.23,26,2,27,0.00
2012-11-20,57.0,43.1,33.9,43.9,35.5,30.2,87,75,57,29.40,29.29,14,0,15,0.00
2012-11-21,70.7,51.2,37.7,47.2,39.6,17.0,84,67,42,29.35,29.07,54,6,55,0.28
2012-11-22,63.1,46.7,31.8,46.3,36.0,7.4,74,67,24,29.20,28.88,59,13,60,0.00
2012-11-23,31.8,22.9,17.7,22.1,13.0,-26.2,72,65,58,29.51,29.19,67,18,68,0.15
2012-11-24,28.0,23.2,11.3,18.4,14.8,6.1,80,70,62,29.49,28.96,24,2,25,0.00
2012-11-25,36.5,28.4,23.0,24.3,19.8,15.8,80,70,60,29.35,28.96,35,4,36,0.00
2012-11-26,27.6,20.2,12.3,20.1,8.6,-27.0,73,60,50,29.57,29.35,33,4,34,0.00
2012-11-27,34.7,23.6,11.1,18.7,11.6,2.3,73,60,48,29.55,29.33,30,2,31,0.00
2012-11-28,37.5,26.7,17.4,27.0,19.5,12.9,85,74,63,29.55,29.30,22,1,23,0.00
2012-11-29,50.1,35.9,25.7,35.8,26.8,19.5,81,70,56,29.30,29.16,15,0,16,0.00
2012-11-30,40.4,35.0,30.2,33.6,29.6,25.1,86,81,73,29.31,29.17,26,3,27,0.00
2012-12-1,48.3,40.6,31.6,44.9,37.0,28.2,88,87,85,29.24,28.92,29,2,30,0.00
2012-12-2,54.8,43.7,33.4,44.3,38.4,30.2,89,82,66,29.20,29.03,26,1,28,0.00
2012-12-3,62.2,49.9,39.3,57.4,44.0,29.8,88,80,65,29.20,28.81,41,4,42,0.00
2012-12-4,44.2,34.3,22.1,29.6,23.3,5.7,73,65,24,29.56,29.19,31,3,32,0.00
2012-12-5,39.5,29.5,19.5,26.3,18.3,4.4,73,63,51,29.57,29.15,41,6,42,0.00
2012-12-6,45.1,40.2,34.3,38.0,32.4,26.2,81,74,66,29.18,29.03,35,6,36,0.08
2012-12-7,36.8,31.7,28.2,26.6,24.0,22.1,79,73,64,29.20,29.12,21,1,22,0.00
2012-12-8,38.8,31.2,23.9,28.8,23.9,19.0,85,74,62,29.21,29.14,27,2,28,0.00
2012-12-9,33.9,31.1,26.0,30.5,27.2,-0.0,87,85,79,29.14,28.93,32,1,33,0.00
2012-12-10,28.2,13.9,8.9,24.8,9.2,4.3,87,81,78,29.11,28.97,0,0,1,0.00
2012-12-11,31.1,23.1,10.7,25.7,17.9,6.1,84,80,76,29.17,28.98,0,0,1,0.00
2012-12-12,45.3,32.3,22.2,30.3,22.9,3.7,83,69,53,29.19,29.10,42,3,43,0.14
2012-12-13,44.9,33.9,25.1,27.4,22.0,18.1,78,62,48,29.28,29.12,33,3,34,0.00
2012-12-14,49.4,35.4,23.5,34.2,26.3,18.0,80,70,53,29.28,28.95,32,3,33,0.00
2012-12-15,43.3,40.4,34.8,39.8,36.4,31.4,88,86,68,28.95,28.65,33,4,34,0.67
2012-12-16,34.8,26.3,19.5,31.6,23.0,16.2,88,87,86,28.96,28.78,27,5,28,0.00
2012-12-17,27.6,23.4,19.2,23.1,19.8,-20.3,88,86,83,28.95,28.83,15,0,16,0.00
2012-12-18,32.1,28.0,24.9,27.8,24.5,21.0,88,86,84,29.02,28.71,23,1,24,0.00
2012-12-19,34.8,31.6,30.0,30.3,28.0,26.9,88,86,83,29.17,28.98,18,0,19,0.00
2012-12-20,30.3,22.1,11.1,27.2,18.5,7.0,89,86,82,29.21,28.83,74,14,75,0.00
2012-12-21,18.5,10.0,4.6,11.0,4.4,-20.7,83,78,71,29.62,29.21,42,7,43,0.00
2012-12-22,31.2,16.9,6.6,19.8,10.2,1.8,83,75,62,29.50,29.09,24,1,25,0.00
2012-12-23,23.1,16.8,12.0,16.7,11.7,7.0,85,80,75,29.25,29.13,33,3,34,0.00
2012-12-24,21.3,15.0,3.0,14.6,9.6,-25.8,83,79,73,29.38,29.08,43,5,44,0.00
2012-12-25,12.7,5.0,-18.9,5.4,-0.8,-24.4,79,76,72,29.72,29.38,32,5,33,0.00
2012-12-26,19.2,8.7,2.8,12.3,3.0,-2.6,79,77,74,29.66,29.48,24,3,25,0.00
2012-12-27,23.9,15.7,6.0,17.3,10.7,0.9,84,80,74,29.52,29.26,44,0,45,0.00
2012-12-28,29.3,22.3,18.5,23.1,17.8,14.2,86,82,74,29.26,29.08,21,1,22,0.00
2012-12-29,19.5,14.1,4.4,15.7,9.0,-0.7,85,80,71,29.42,29.12,27,5,28,0.00
2012-12-30,27.6,14.1,0.6,20.0,8.7,-4.1,83,79,71,29.55,29.11,28,2,29,0.02
2012-12-31,20.1,10.9,-1.1,14.9,4.5,-7.4,83,75,65,29.57,29.14,43,6,44,0.00
2013-1-1,15.4,5.8,-6.1,8.3,-0.9,-11.7,77,73,66,29.73,29.43,22,1,23,0.00